Current Conditions for Foresthill, CA. Clear skies, Dry   
Visibility: --- miles
Foresthill Advisory text: Warning Description: Special Statement Warning Date: 3:00 PM PDT on July 26, 2016

  Summary / Temperature 

Current Temperature
76.4°F
24.7°C
(24/hr Ago)
74.5°F
(Apparent temp)
74.1°F
Comfortable
Heat Index
76.0°F 

77.6°F/ 25.3°C
Little or no discomfort

 Temp Rate:

 24/hr Difference:

 Avg Running Temp:

 Todays High:

 Todays Low:

 Y-days High:

 Y-days Low:

 Todays HeatIdx:

 Y-days HeatIdx:

 Evapotranspiration:

-0.3°F/hr 

+1.9°F

77.0°F

76.9°F 12:00am

76.4°F 12:32am

93.8°F 1:32pm

70.8°F 5:44am

76.5°F 12:00am

90.4°F 1:34pm

0.000 in

115' Above Ground

 Temperature:

 6'AGL VRS 115'AGL:

 Avg Running Temp:

 Humidity:

 Todays High:

 Todays Low:

 Y-days High:

 Y-days Low:

78.0°F 

+1.6°F

80.1°F

31% 

80.0°F 12:00am

78.0°F 12:43am

95.0°F 4:15pm

73.0°F 5:04am

Temp & Humidity Graphs

  Wind 

Wind Speed

 2.0 mph

Gusting to

 9.0 mph

Wind from ESE

103°  ESE

Light air

 Avg speed:

 Wind Run:

 Peak Gust:

  3.0 mph 

3.0 miles

  14.0 mph 12:17am

  Almanac  

Moon age: 22 days,12 hours,13 minutes,46%

Waning Crescent
46%
Illuminated
22 days in cycle

 Moonrise:

 Moonset:

 Sunrise:

 Sunset:

 Solar Noon:

12:41am

2:25pm

6:01am

8:20pm

1:09pm

1min 44s less daylight tomorrow 

  Solar Radiation 

(Current Solar)
  No Sun Light
(Todays High)
 None@12:00am

Rain

 Rain Today:

 Rain Rate (/hr):

 Rain last hour:

 Rain Yesterday:

 This Month:

 Season Total:

61 Days Since Last Rain Day

0.00 in

0.000 in

0.00 in

0.00 in

0.00 in

0.00 in

Updated Time

Updated: 7/27/16  12:43am

(Updated  sec ago)

Humidity & Barometer

 Humidity:

 Wetbulb:

 Dew Point:

 Barometer:

36% 

61.1°F 

47.5°F 

29.858 inHg 

 Baro Trend:  Steady 
Northern Calif
Preparedness
Fire 
Level 

    UV Index  

(Current UV)
0.0  None
(Todays High) @ 12:00am
0.0   None

Weather Underground 5 day Forecast

Wed Thu Fri Sat Sun
Clear Clear Clear Clear Clear
Clear Clear Clear Clear Clear
105° 104° 104° 100° 95°
73° 73° 74° 67° 64°

Foresthill Probe 2 Stats  
Foresthill Probe 2: is located on Thomas Street
at 3000 feet. The main Foresthill Weather site
is located on Melody ln at the 2860 foot elevation

Calm
73.8°F
23.2°C
Temp Rate:
-0.7°F
Calm
Gusting to
1.0 mph
(Humidity)
38%
Wind from SE
125°  SE
Updated: 27/07/16 - 00:41:35
 Todays High: 74.2°F 00:10
 Todays Low: 73.4°F 00:29
 Rain Today: 0.00 in
 Season Total: 0.00 in

Foresthill Wx: Monthly,Yearly, Highs and Lows 

Foresthill  
This Weather Data is coming from the main Foresthill
Weather site located on Melody ln at the 2860 foot
elevation
Not Foresthill Probe 2
Weather Data
Month
  High
Month
  Low
Year
High
Year
Low
Temp 93.8°F
7/26/16
51.4°F
7/10/16
93.8°F
7/26/16
28.4°F
2/1/16
Humidity 84%
7/10/16
15%
7/22/16
100%
1/6/16
14%
6/30/16
Heat Index 90.4°F
7/26/16
55.6°F
7/10/16
90.4°F
7/26/16
33.3°F
2/1/16
Wind Chill 93.8°F
7/26/16
48.4°F
7/10/16
93.8°F
7/26/16
15.8°F
2/1/16
Wind Gust 25 mph
7/17/16
0 mph
7/1/16
48 mph
2/17/16
0 mph
1/1/16
Barometer 30.10 in
7/22/16
29.76 in
7/1/16
30.56 in
2/3/16
29.44 in
2/17/16
ET 0.27 in
7/17/16
0.00 in
7/1/16
0.27 in
6/22/16
0.00 in
1/1/16
Dew Point 58.8°F
7/1/16
27.2°F
7/23/16
64.3°F
6/4/16
19.9°F
1/1/16
Infrared Satellite Regional Radar Satellite Imagery Sacramento,CA.  (click to enlarge)
NWS Weather Forecast - Outlook: Overnight and Wednesday
Overnight

Overnight: Clear, with a low around 69. East northeast wind 3 to 8 mph.
Clear

Lo 69 °F
NWS forecast: Clear, with a low around 69. East northeast wind 3 to 8 mph.
Wednesday

Wednesday: Sunny and hot, with a high near 98. East northeast wind 5 to 8 mph becoming light and variable.
Hot

Hi 98 °F
NWS forecast: Sunny and hot, with a high near 98. East northeast wind 5 to 8 mph becoming light and variable.
NWS Weather Forecast - Summary
Updated: Tuesday, July 26, 2016 - 2:51pm (PDT)
YR.NO 10 Day Weather forecast
Last update: 07/26/2016 @ 12:31
Next update: 07/27/2016 @ 01:00
Provided by: 22
      Temperature Precipitation Pressure Wind  
Tomorrow
07/26/2016
23:00 05:00 72°F   29.87 inHg Light air from east-southeast 3 mph
    (Click to enlarge)
meteogram

    Forecast for next 9 days

      Temperature Precip Pressure Wind  
Today 05:00 11:00 63°F   29.87 inHg Light breeze from east-northeast 6 mph
  11:00 17:00 93°F   29.88 inHg Light breeze from southwest 5 mph
  17:00 23:00 95°F   29.83 inHg Light breeze from southwest 6 mph
  23:00 05:00 75°F   29.88 inHg Light air from east 3 mph
      Temperature Precip Pressure Wind  
Thursday
07/28/2016
05:00 11:00 66°F   29.84 inHg Light breeze from east-northeast 5 mph
  11:00 17:00 97°F   29.83 inHg Light breeze from west-southwest 6 mph
  17:00 23:00 97°F   29.78 inHg Light breeze from west-southwest 6 mph
  23:00 05:00 77°F   29.80 inHg Light air from east 3 mph
      Temperature Precip Pressure Wind  
Friday
07/29/2016
05:00 11:00 68°F   29.77 inHg Light breeze from east-northeast 5 mph
  11:00 17:00 95°F   29.78 inHg Light breeze from west-southwest 6 mph
  17:00 23:00 97°F   29.70 inHg Light breeze from west-southwest 7 mph
  23:00 05:00 77°F   29.73 inHg Light air from east-southeast 2 mph
      Temperature Precip Pressure Wind  
Saturday
07/30/2016
05:00 11:00 68°F   29.72 inHg Light breeze from east-northeast 4 mph
  11:00 17:00 93°F   29.76 inHg Light breeze from southwest 6 mph
  17:00 23:00 93°F   29.72 inHg Light breeze from southwest 7 mph
  23:00 05:00 72°F   29.80 inHg Light air from east-southeast 3 mph
      Temperature Precip Pressure Wind  
Sunday
07/31/2016
05:00 11:00 64°F   29.83 inHg Light air from southeast 2 mph
  11:00 17:00 84°F   29.86 inHg Light breeze from southwest 5 mph
  17:00 23:00 86°F   29.80 inHg Light breeze from southwest 7 mph
  23:00 05:00 66°F   29.88 inHg Light air from south 2 mph
      Temperature Precip Pressure Wind  
Monday
08/01/2016
05:00 11:00 61°F   29.88 inHg Light air from east 1 mph
  11:00 17:00 82°F   29.93 inHg Light breeze from southwest 5 mph
  17:00 23:00 86°F   29.88 inHg Light breeze from southwest 6 mph
  23:00 05:00 70°F   29.93 inHg Light air from south-southeast 2 mph
      Temperature Precip Pressure Wind  
Tuesday
08/02/2016
05:00 11:00 61°F   29.93 inHg Light breeze from east-northeast 4 mph
  11:00 17:00 88°F   29.96 inHg Light breeze from southwest 6 mph
  17:00 23:00 90°F   29.91 inHg Light breeze from west-southwest 6 mph
  23:00 05:00 70°F   29.93 inHg Light air from east-southeast 3 mph
      Temperature Precip Pressure Wind  
Wednesday
08/03/2016
05:00 11:00 61°F   29.92 inHg Light breeze from east-northeast 5 mph
  11:00 17:00 90°F   29.92 inHg Light breeze from southwest 5 mph
  17:00 23:00 91°F   29.85 inHg Light breeze from west-southwest 6 mph
  23:00 05:00 70°F   29.90 inHg Light air from east 2 mph
      Temperature Precip Pressure Wind  
Thursday
08/04/2016
05:00 11:00 63°F   29.87 inHg Light breeze from east-northeast 5 mph
  11:00 17:00 88°F   29.90 inHg Light breeze from southwest 5 mph
  17:00 23:00 88°F   29.84 inHg Light breeze from southwest 6 mph
  23:00 05:00 68°F   29.89 inHg Light air from east 2 mph

Weather History For Wednesday, July 27, 2016


On this Day - In Weather History ...
Data courtesy of weatherforyou.com
powered by Cumulus v1.9.3 (1059)
Ambient Weather VWS v14.00
Top Contact Website Map Copyright © 2007 - 2016 Foresthillweather.com Never base important decisions on this or any weather information obtained from the Internet